COSMOS 2251 DEB, 33907

Orbit data source: Space-Track

COSMOS 2251 DEB, 33907 is space debris in LEO originally from a launch on Wed, 16 Jun 1993 UTC launched from the Plesetsk Missile And Space Complex (PKMTR). The debris from Iridium 33, an American commercial communications satellite, has been tracked extensively since its accidental collision with the defunct Russian satellite Cosmos 2251 in 2009. This event, occurring at high speed in low Earth orbit (LEO), generated thousands of pieces of space debris, significantly increasing the risk of further collisions. The Iridium 33 debris cloud has impacted space traffic management and orbital debris mitigation strategies, making it a subject of ongoing study in space situational awareness.

Loading next visibility...
Identifier
33907, 1993-036DL
Orbit
LEO
Country
Flag of CISCIS
Related business
Manufacturer
Unknown
Mission
Spacecraft
Bus & Motor
Unknown
Mass
Unknown
Launch date (UTC)
1993-06-16 (32 years ago)
Launch vehicle
Unknown
Launch site
Plesetsk Missile And Space Complex (PKMTR)
Object type
Payload
Rocket body
Debris
Shape & HBR
Unknown shape, 0.1 m
Radar Cross Section
Small (<0.1 m²)

Expand to show TLE details & history
Last TLE update: 8 hours ago

TLE from 8 hours ago
0 COSMOS 2251 DEB
1 33907U 93036DL  25308.48403765  .00008004  00000-0  28948-2 0  9993
2 33907  74.0672 103.0999 0117403 168.4301 249.1927 14.29830461860332
Epoch: 2025-11-04T11:37Z
TLE epoch observation values (Epoch: 2025-11-04T11:37:00.852Z)
Latitude
53.30088°
Longitude
-92.72938°
Altitude
831.433 km
Speed
7.427 km/s
True Right ascension
08h 21m 58s
True Declination
53° 08' 15"
Sunlit
Object was in daylight at epoch
Visualization orbit readout
Latitude
Unknown
Longitude
Unknown
Altitude
Unknown
Speed
Unknown
Apparent Right ascension
Unknown
Apparent Declination
Unknown
Sunlit
N/A
Visualization observer readout
Local Sidereal Time
15:46:31
Azimuth
Unknown
Elevation
Unknown
Doppler factor
Unknown
Orbital elements
Apogee altitude
874.08 km
Perigee altitude
705.77 km
Semi-major axis
7,168.062 km
Eccentricity
0.01174
Inclination
74.0672°
RAAN
103.0999°
Arg. of periapsis
168.4301°
True anomaly
247.94173°
Mean anomaly
249.1927°
Eccentric anomaly
248.56655°
Mean motion
3.57635 °/min
Orbital period
100.66 mins
BSTAR
0.0028948

Documentation

Showing up to 5 results
|